Regional Weather Roundup
Issued by NWS

Home | Current Version | Previous Version | Graphics & Text | Print | Product List | Glossary On
Versions: 1 2 3 4 5 6 7 8 9 10 11 12 13 14 15 16 17 18 19 20 21 22 23 24 25 26 27 28 29 30 31 32 33 34 35 36 37 38 39 40 41 42 43 44 45 46 47 48 49 50
000
ASUS43 KMKX 221611
RWRWI

WISCONSIN REGIONAL WEATHER ROUNDUP
NATIONAL WEATHER SERVICE MILWAUKEE/SULLIVAN WI
1000 AM CST WED FEB 22 2017

NOTE: "FAIR" INDICATES FEW OR NO CLOUDS BELOW 12,000 FEET WITH NO
SIGNIFICANT WEATHER AND/OR OBSTRUCTIONS TO VISIBILITY.

WIZ001-002-006>008-014>016-023>028-221700-
NORTHWEST WISCONSIN

CITY           SKY/WX    TMP DP  RH WIND       PRES   REMARKS
SUPERIOR ARPT  CLOUDY    39  37  94 CALM      29.63S
ASHLAND        PTSUNNY   45  40  82 CALM      29.63R
HAYWARD        CLOUDY    43  41  93 N5        29.60F FOG
SIREN          FOG       39  39  99 CALM      29.61F VSB 1/4
CUMBERLAND     CLOUDY    37  37 100 N3        29.59F FOG
RICE LAKE      CLOUDY    41  39  95 CALM      29.61F
CHETEK         CLOUDY    44  39  83 CALM      29.59F
LADYSMITH      PTSUNNY   45  40  80 CALM      29.61F
EAU CLAIRE     CLOUDY    48  38  68 S3        29.59S
MENOMONIE      CLOUDY    46  39  78 CALM      29.60S
NEW RICHMOND   CLOUDY    44  44  99 CALM      29.60R
OSCEOLA        CLOUDY    42  42 100 NW3       29.64S
$$

WIZ003>005-009-010-017-018-221700-
NORTH CENTRAL WISCONSIN

CITY           SKY/WX    TMP DP  RH WIND       PRES   REMARKS
MANITOWISH WTR MOSUNNY   44  39  85 NE3       29.59F
ARBOR VITAE    PTSUNNY   45  38  76 N3          N/A
WOODRUFF       PTSUNNY   45  38  76 N3          N/A
RHINELANDER    CLOUDY    48  38  68 CALM      29.60F
EAGLE RIVER    CLOUDY    44  35  70 CALM      29.60F
LAND O LAKES   CLOUDY    44  36  73 CALM      29.63S
PHILLIPS       CLOUDY    46  39  76 CALM      29.59S
TOMAHAWK       MOSUNNY   48  37  67 CALM      29.61S
MEDFORD        SUNNY     47  38  70 CALM      29.60F
MERRILL        NOT AVBL
$$

WIZ029-030-035-036-043>047-221700-
CENTRAL WISCONSIN

CITY           SKY/WX    TMP DP  RH WIND       PRES   REMARKS
WAUSAU         PTSUNNY   49  37  63 VRB5      29.60R
MOSINEE        MOSUNNY   48  39  71 SE3       29.62S
MARSHFIELD     MOSUNNY   51  37  58 SW8       29.59R
STEVENS POINT  PTSUNNY   51  37  57 SW5       29.61S
WAUPACA        MOSUNNY   58  45  62 S3        29.62S
WAUTOMA        SUNNY     58  44  60 SW12      29.61F
WISC RAPIDS    MOSUNNY   55  39  54 SW9       29.61S
CAMP DOUGLAS   PTSUNNY   57  37  47 SW9       29.60F
$$

WIZ011>013-019>022-031-037>040-048>050-221700-
NORTHEAST WISCONSIN

CITY           SKY/WX    TMP DP  RH WIND       PRES   REMARKS
ANTIGO         CLOUDY    46  39  76 NW7       29.62S
SHAWANO        CLOUDY    49  42  76 CALM      29.62F
OCONTO         CLOUDY    48  42  79 CALM      29.64F
STURGEON BAY   CLOUDY    51  44  77 S8          N/A
GREEN BAY      PTSUNNY   50  48  93 SW5       29.63F
MANITOWOC      LGT RAIN  43  40  89 E6        29.66F
APPLETON       PTSUNNY   50  46  87 S12       29.61R
CLINTONVILLE   MOSUNNY   50  41  71 CALM      29.61F
OSHKOSH        SUNNY     53  48  83 S14       29.62F
$$

WIZ032>034-041-042-053>061-221700-
SOUTHWEST WISCONSIN

CITY           SKY/WX    TMP DP  RH WIND       PRES   REMARKS
LA CROSSE      CLOUDY    52  36  54 S3        29.61S
SPARTA         CLOUDY    54  36  51 SW7       29.61S
VIROQUA        CLOUDY    51  37  58 SW14      29.62F
BOSCOBEL       SUNNY     60  41  49 SW10G20   29.65F
PRAIRIE DU CHI SUNNY     58  37  47 S6        29.64F
PLATTEVILLE    SUNNY     56  53  91 S13       29.68F
$$

WIZ056-057-062-063-064-067-068-221700-
SOUTH CENTRAL WISCONSIN

CITY           SKY/WX    TMP DP  RH WIND       PRES   REMARKS
REEDSBURG      SUNNY     57  45  62 SW13G20   29.63F
BARABOO/DELLS  SUNNY     57  42  57 SW15G21   29.62F
LONE ROCK      SUNNY     58  46  64 SW12G21   29.66F
MINERAL POINT  SUNNY     54  54 100 S15       29.67F
MADISON        MOSUNNY   54  49  83 S12G20    29.67F
MIDDLETON      SUNNY     59  49  69 SW13G22   29.67F
WATERTOWN      SUNNY     57  52  84 SW18G24   29.68F
MONROE         CLOUDY    52  52 100 S17       29.70F FOG
JANESVILLE     MOSUNNY   55  55 100 SW17      29.72F
$$

WIZ051-052-058>065-066-070>072-221700-
SOUTHEAST WISCONSIN

CITY           SKY/WX    TMP DP  RH WIND       PRES   REMARKS
MILWAUKEE      PTSUNNY   57  52  83 SW13      29.71F
WAUKESHA       PTSUNNY   54  50  87 S14       29.71F
MILWAUKEE/TIMM MOSUNNY   55  48  76 SW10G21   29.71F
RACINE         CLOUDY    56  53  90 SW15      29.73F
KENOSHA        CLOUDY    56  53  90 SW13      29.73F
FOND DU LAC    SUNNY     57  48  72 S12G21    29.64F
SHEBOYGAN      SUNNY     60  48  64 SW13      29.65F
WEST BEND      SUNNY     59  52  77 SW13      29.66F
JUNEAU         MOSUNNY   55  51  86 S18       29.68F
$$

LSZ147-162-221700-
LAKE SUPERIOR

STATION/POSITION TIME  TEMP    WIND        PRES    WAVE
                       AIR SEA DIR/SP/G            HT/PER
                 (UTC) (F)     (DEG/KT/KT) (MB)    (FT/S)
DEVILS ISLAND    1600   38     100/  5/  6 1004.1F
PORT WING        1540   37      40/  2/  2 1003.7S
SAXON HARBOR     1540   39        CALM     1003.4F
$$

LMZ867-665-643>646-221700-
LAKE MICHIGAN

STATION/POSITION TIME  TEMP    WIND        PRES    WAVE
                       AIR SEA DIR/SP/G            HT/PER
                 (UTC) (F)     (DEG/KT/KT) (MB)    (FT/S)
CHAMBERS ISLAND  1540   47     170/  4/ 10 1002.4F
NORTHPORT PIER   1600   41     150/  8/ 15 1003.0
SISTER BAY       1535   50     180/ 10/ 11   N/A
KEWAUNEE LAKESHO 1542   36     180/ 14/ 15 1003.9F
SHEBOYGAN LAKESH 1600   43     180/ 16/ 18 1004.3F
PORT WASHINGTON  1530   51     170/  7/  9 1006.1F
MILWAUKEE LAKESH 1550   53     220/ 11/ 12   N/A
KENOSHA   LAKESH 1600   57     220/ 12/ 18 1007.1
$$

TC  - TEMPERATURE IN CELSIUS
VSB - VISIBILITY IN STATUTE MILES
WCI - WIND CHILL INDEX
HX  - HEAT INDEX




USA.gov is the U.S. government's official web portal to all federal, state and local government web resources and services.